Weather observations for the past three days for
McConnell Air Force Base
Imperial (Metric)
Date Time (cdt) Wind (mph) Vis. (mi.) Weather Sky Cond. Temperature (ºF) Relative Humidity Wind Chill (°F) Heat Index (°F) Pressure Precipitation (in)
Air Dwpt 6 hour altimeter (in) sea level (mb) 1 hr 3 hr 6 hr
Max. Min.
03 00:55 S 10 10.00 Fair CLR 84.4 63.7 97.5 84.2 50% 86 29.89 1010.3
02 23:55 S 13 10.00 Fair CLR 85.8 63.1 47% 87 29.89 1010.3
02 22:55 S 13 10.00 Fair CLR 88 63.3 44% 89 29.89 1010.3
02 21:55 S 10 10.00 Fair CLR 88.5 62.4 42% 89 29.88 1010.0
02 20:55 S 10 10.00 Fair CLR 90.7 62.2 39% 91 29.87 1009.7
02 19:55 S 12 10.00 Fair CLR 94.6 62.6 35% 96 29.85 1009.0
02 18:55 S 15 10.00 Fair CLR 97.5 62.6 102 97.5 32% 99 29.85 1009.0
02 17:55 S 14 G 23 10.00 Fair CLR 100 59.9 27% 100 29.85 1008.9
02 16:55 S 14 10.00 Fair CLR 100.6 60.4 27% 101 29.87 1009.6
02 15:55 S 17 G 22 10.00 Fair CLR 100.9 60.8 27% 102 29.89 1010.3
02 14:55 S 17 G 24 10.00 Fair CLR 100.4 63.3 30% 103 29.91 1011.0
02 13:55 SW 17 G 23 10.00 Fair CLR 100 63.9 31% 103 29.93 1011.6
02 12:55 SW 14 10.00 Fair CLR 99.1 64.9 99.3 75.7 33% 102 29.95 1012.3
02 11:55 S 17 10.00 Fair CLR 95.7 66 38% 99 29.97 1013.0
02 10:55 SW 16 G 21 10.00 Fair CLR 92.3 66.6 43% 96 29.99 1013.7
02 09:55 SW 13 10.00 Fair CLR 88.7 66.4 48% 91 29.99 1013.8
02 07:55 S 7 10.00 Fair CLR 78.6 64.4 62% 80 29.98 1013.4
02 06:55 S 6 10.00 Fair CLR 75.6 63 82.8 75 65% 77 29.97 1013.1
02 05:55 SW 9 10.00 Fair CLR 78.8 62.2 57% 80 29.96 1012.7
02 04:55 SW 10 10.00 Fair CLR 79 61.9 56% 80 29.95 1012.4
02 03:55 SW 8 10.00 Fair CLR 78.6 62.1 57% 80 29.95 1012.4
02 02:55 S 8 10.00 Fair CLR 81 62.2 53% 82 29.94 1012.0
02 01:55 S 8 10.00 Fair CLR 81.9 61.9 51% 83 29.94 1012.0
02 00:55 S 8 10.00 Fair CLR 82.8 61.5 97.2 82.6 49% 83 29.94 1012.0
01 23:55 S 12 10.00 Fair CLR 84.4 61.3 46% 85 29.94 1012.0
01 22:55 S 10 10.00 Fair CLR 85.8 59.4 41% 85 29.94 1012.0
01 21:55 S 9 10.00 Fair CLR 87.1 56.8 36% 86 29.93 1011.7
01 20:55 S 8 10.00 Fair CLR 89.2 57.2 34% 88 29.91 1011.0
01 19:55 S 10 10.00 Fair CLR 93.4 56.3 29% 92 29.9 1010.7
01 18:55 S 14 10.00 Fair CLR 97.3 55.6 101.7 97 25% 96 29.91 1011.1
01 17:55 S 14 G 21 10.00 Fair CLR 99.5 56.3 24% 98 29.91 1011.0
01 16:55 SW 17 10.00 Fair CLR 100.8 54.9 22% 99 29.91 1011.0
01 15:55 SW 17 G 23 10.00 Fair CLR 100.8 54.9 22% 99 29.93 1011.7
01 14:55 W 15 10.00 A Few Clouds FEW180 100.6 57.2 24% 100 29.95 1012.4
01 13:55 SW 12 10.00 A Few Clouds FEW090 FEW180 98.8 57.9 26% 98 29.97 1013.0
01 12:55 SW 20 G 23 10.00 Fair CLR 99.3 59.4 100 73.9 27% 99 29.99 1013.7
01 11:55 SW 15 G 21 10.00 Fair CLR 97.2 61.3 31% 98 30 1014.1
01 10:55 SW 16 10.00 Fair CLR 93.7 61 34% 94 30.01 1014.4
01 09:55 SW 14 10.00 Fair CLR 89.2 61.7 40% 90 30.01 1014.4
01 08:55 SW 15 10.00 A Few Clouds FEW100 84.9 59.2 42% 85 30.02 1014.8
01 07:55 S 10 10.00 A Few Clouds FEW100 80.4 59.5 49% 81 30.02 1014.8
01 06:55 S 6 10.00 Fair CLR 73.9 58.6 83.7 73.9 59% 30 1014.1
01 05:55 SW 8 10.00 Fair CLR 75.6 58.6 56% 78 29.99 1013.8
01 04:55 SW 8 10.00 Fair CLR 78.1 58.5 51% 79 29.98 1013.3
01 03:55 SW 9 10.00 Fair CLR 77.9 58.3 51% 79 29.97 1013.0
01 02:55 SW 9 10.00 Fair CLR 80.4 58.3 47% 81 29.96 1012.7
01 01:55 S 10 10.00 Fair CLR 83.1 58.3 43% 83 29.97 1013.0
01 00:55 S 9 10.00 Fair CLR 83.5 59.9 99 82.8 45% 84 29.97 1013.0
31 23:55 S 8 10.00 Fair CLR 83.5 60.4 46% 84 29.96 1012.7
31 22:55 S 8 10.00 Fair CLR 85.6 59.9 42% 85 29.95 1012.4
31 21:55 S 10 10.00 Fair CLR 88 60.6 40% 88 29.93 1011.7
31 20:55 S 9 10.00 Fair CLR 90.9 59.4 35% 90 29.91 1011.0
31 19:55 S 10 10.00 Fair CLR 95 58.6 30% 94 29.9 1010.7
31 17:55 S 10 10.00 Fair CLR 101.5 55.4 22% 100 29.89 1010.3
31 16:55 S 18 G 24 10.00 Fair CLR 102.9 55.4 21% 102 29.9 1010.7
31 15:55 S 16 10.00 Fair CLR 102.9 54 20% 101 29.92 1011.3
31 14:55 S 18 G 26 10.00 Fair CLR 102.4 56.3 22% 101 29.92 1011.3
31 13:55 S 13 G 21 10.00 Fair CLR 102 59.5 25% 103 29.94 1011.9
31 12:55 S 13 G 24 10.00 Fair CLR 98.6 62.6 99 75.7 31% 100 29.96 1012.6
31 11:55 SW 15 10.00 Fair CLR 96.3 62.4 33% 97 29.98 1013.3
31 10:55 SW 14 10.00 Fair CLR 93.4 63.1 37% 95 29.98 1013.3
31 09:55 SW 13 10.00 Fair CLR 89.2 62.4 41% 90 29.98 1013.3
31 08:55 SW 12 10.00 Fair CLR 85.5 61 44% 86 29.99 1013.7
31 07:55 S 10 10.00 Fair CLR 80.6 59.5 49% 81 29.97 1013.1
31 06:55 S 7 10.00 Fair CLR 75.4 61 86.7 74.7 61% 78 29.97 1013.1
31 05:55 SW 8 10.00 Fair CLR 75.9 61 60% 78 29.95 1012.4
31 04:55 SW 9 10.00 Fair CLR 77.9 60.4 55% 79 29.93 1011.6
31 03:55 SW 9 10.00 Fair CLR 80.4 61.2 52% 81 29.92 1011.3
31 02:55 SW 12 10.00 Fair CLR 83.3 60.3 46% 84 29.91 1010.9
31 01:55 SW 12 10.00 Fair CLR 83.5 60.4 46% 84 29.92 1011.3
Date Time (cdt) Wind (mph) Vis. (mi.) Weather Sky Cond. Air Dwpt Max. Min. Relative Humidity Wind Chill (°F) Heat Index (°F) altimeter (in) sea level (mb) 1 hr 3 hr 6 hr
6 hour
Temperature (ºF) Pressure Precipitation (in)